Location: Chervonnoye
(48.6000°N, 34.4000°E)
Time: 13:01:11
(UTC+00:00)

deb Kosmos-2237 - Pass Details

Date: 15 June 2021
Orbit: 850 x 1045 km, 71.0° (Epoch: 25 July)

Event Time Altitude Azimuth Distance (km) Brightness Sun altitude
Rises 22:50:36 0° 287° (WNW) 3,640 ? -16.5°
Reaches altitude 10° 22:55:03 10° 316° (NW) 2,746 ? -16.3°
Maximum altitude 22:57:33 12° 340° (NNW) 2,602 ? -16.1°
Drops below altitude 10° 23:00:06 10° 3° (N) 2,797 ? -16.0°
Sets 23:04:46 0° 32° (NNE) 3,786 ? -15.8°
